Жаксы

Казахстан     51°54′30″N   67°18′58″E
темп.,
°C
ветер,
м/с
пор.,
м/с
влажн.,
%
обл.,
%
осадки,
мм/ч
давл.,
гПа
погр.,
м
1 марта, пн
пн123:000юз81298100 1.4 1004710
02:00−1юз81396100 0.8 1005685
05:00−2зюз71395100 1.3 1007677
08:00−5зюз71295100 0.4 1009489
11:00−7з5795100 0.6 1011344
14:00−7з5694100 0.1 1013378
17:00−10з3596100 0.1 1015155
20:00−13з2397100 0.1 101734
2 марта, вт
вт223:00−15зюз239897 0.1 101920
02:00−14юз339697 0.2 101872
05:00−15юз339695 0.4 101874
08:00−15юз369693 0.1 1017184
11:00−14юз469495 0.3 1017285
14:00−13юз579399 0.1 1016343
17:00−15юз5895100 0.2 1016336
20:00−16юз6119599 0.1 1017333
3 марта, ср
ср323:00−19юз6139999 0.1 1018286
02:00−20юз71499100 0.0 1017280
05:00−17юз81492100 0.0 1017342
08:00−16юз81493100 0.1 1015390
11:00−12юз91693100 0.2 1015453
14:00−8юз101792100 0.3 1013663
17:00−5юз101693100 0.8 1012905
20:00−4юз91694100 0.6 1010871
4 марта, чт
чт423:00−3юз91595100 1.3 1010817
02:00−3юз91595100 0.9 1008756
05:00−2ююз101695100 1.8 1007927
08:00−2юз111795100 1.1 10051018
11:00−1юз111694100 2.0 10051151
14:00−1юз111592100 0.7 10051065
17:00−2юз81395100 1.2 1006852
20:00−3з61097100 0.8 1008428
5 марта, пт
пт523:00−12зсз479588 1.2 1011104
02:00−15з45950 0.0 101371
05:00−14юз611930 0.0 1016191
08:00−13юз816870 0.0 1016290
11:00−10юз12199222 0.1 1016595
14:00−7юз132091100 0.2 1016772
17:00−6юз131990100 0.4 1016910
20:00−5юз121892100 0.4 1017902